Hourly Data Report for November 26, 2003

TORONTO CITY
ONTARIO

43°40'00.000" N
79°24'00.000" W
112.50 m
6158355
71508
XTO

Download Data

Hourly Data (November 2003)
Hourly Data Report for November 26, 2003
TIME
LST
Temp Definition
°C
Dew Point Definition
°C
Rel Hum Definition
%
Precip. Amount Definition
mm

Wind Dir Definition
10's deg

Wind Spd Definition
km/h
Visibility Definition
km
Stn Press Definition
kPa
Hmdx Definition


Wind Chill Definition


Weather Definition


00:00 3.7 -1.7 68   LegendMM LegendMM LegendMM 100.17     LegendNANA
01:00 3.8 -1.8 67   LegendMM LegendMM LegendMM 100.14     LegendNANA
02:00 3.9 -1.0 70   LegendMM LegendMM LegendMM 100.13     LegendNANA
03:00 4.1 -1.0 69   LegendMM LegendMM LegendMM 100.15     LegendNANA
04:00 4.3 -1.4 66   LegendMM LegendMM LegendMM 100.13     LegendNANA
05:00 3.8 -1.6 68   LegendMM LegendMM LegendMM 100.15     LegendNANA
06:00 3.8 -1.3 69   LegendMM LegendMM LegendMM 100.18     LegendNANA
07:00 3.9 -1.4 68   LegendMM LegendMM LegendMM 100.18     LegendNANA
08:00 4.0 -2.1 64   LegendMM LegendMM LegendMM 100.21     LegendNANA
09:00 4.5 -2.5 60   LegendMM LegendMM LegendMM 100.26     LegendNANA
10:00 5.2 -2.7 57   LegendMM LegendMM LegendMM 100.31     LegendNANA
11:00 6.5 -2.2 54   LegendMM LegendMM LegendMM 100.32     LegendNANA
12:00
13:00 7.7 0.4 60   LegendMM LegendMM LegendMM 100.30     LegendNANA
14:00 7.2 0.4 62   LegendMM LegendMM LegendMM 100.30     LegendNANA
15:00 7.4 0.8 63   LegendMM LegendMM LegendMM 100.36     LegendNANA
16:00 7.0 1.7 69   LegendMM LegendMM LegendMM 100.42     LegendNANA
17:00 6.9 0.4 63   LegendMM LegendMM LegendMM 100.46     LegendNANA
18:00 6.7 1.2 68   LegendMM LegendMM LegendMM 100.49     LegendNANA
19:00 6.3 0.6 67   LegendMM LegendMM LegendMM 100.55     LegendNANA
20:00 6.1 0.0 65   LegendMM LegendMM LegendMM 100.62     LegendNANA
21:00 5.5 0.3 69   LegendMM LegendMM LegendMM 100.67     LegendNANA
22:00 4.7 0.3 73   LegendMM LegendMM LegendMM 100.70     LegendNANA
23:00 4.6 0.6 75   LegendMM LegendMM LegendMM 100.72     LegendNANA

Notes on Data Quality.

Legend

  • E = Estimated
  • M = Missing
  • NA = Not Available*
  • [empty] = Indicates an unobserved value
Date modified: